Location: Goettingen
(51.5300°N, 9.9433°E)
Time: 15:34:28
(UTC+02:00)

X-37B - Pass Details

Date: 28 September 2021
Orbit: 385 x 389 km, 45.0° (Epoch: 17 October)

Event Time Altitude Azimuth Distance (km) Brightness Sun altitude
Exits shadow 05:58:25 19° 220° (SW) 1,009 2.2 -12.8°
Maximum altitude 05:59:46 25° 182° (S) 826 2.1 -12.6°
Drops below altitude 10° 06:02:27 10° 124° (SE) 1,414 4.1 -12.2°
Sets 06:04:44 0° 111° (ESE) 2,269 5.5 -11.9°
